COSMOS 689

Satellite information

Favourite Embed

Satellite Type and Status

PAYLOADIN ORBIT

Key statistics

Satellite COSMOS 689 at a glance.

Uptime

18684

Days in orbit

Revolutions

≈ 13.7

Per day

Orbit

LEO

Low Earth Orbit

Inclination

82.9

Latest

Satellite identification and parameters

Extended collection of information and parameters for COSMOS 689.

Object identification

Identified? True

Debris? False

Object name: COSMOS 689

International designator: 1974-079A

Object number (NORAD): 7476

Object ID (CCSDS): 7476

Country: COMMONWEALTH OF INDEPENDENT STATES (CIS)

Current information (Y/N): Y

RCS size: LARGE

Orbital parameters

Period: 104.929 minutes

Inclination: 82.9417 deg

SMA: 7369.279 km

Apoapsis: 1012.334 km

Periapsis: 969.955 km

RAAN: 314.6509 deg

Eccentricy: 0.00287539

Argument of periapsis: 282.893 deg

Mean anomaly: 197.6555 deg

Mean motion: 13.72351177 rev/day

Mean motion (dot): 0.00000092 rev/day2

B* drag term: 0.000084272906 1/REarth

Two-line elements (TLE)

Creation date: Dec. 12, 2025, 10:14 a.m.

Reference frame: TEME

Reference center: EARTH

Epoch: Dec. 12, 2025, 6:30 a.m. UTC

TLE line 0: 0 COSMOS 689

TLE line 1: 1 07476U 74079A 25346.27094780 .00000092 00000-0 84273-4 0 9997

TLE line 2: 2 07476 82.9417 314.6509 0028754 282.8930 197.6555 13.72351177560739

Live tracking on map

Real-time ground track for satellite COSMOS 689.

In-orbit conjunctions

There are no conjunctions computed for COSMOS 689, at the moment. Check back to stay up to date, as we update our databases every day.

Go to all conjunctions

Associated space launch

High resolution optical reconnaissance satellite of the Vostok-based Zenit family.

COSMOS 689 was lifted into orbit during the mission ‘Voskhod | Zenit-4MK 31’, on board a Voskhod space rocket.

The launch took place on Oct. 18, 1974, 3 p.m. from 41/1.

For more information about the launch, click the button.

Launch to space Voskhod | Zenit-4MK 31
Voskhod | Zenit-4MK 31

Agency: N/A

Status: Launch Successful

Launch date: Oct. 18, 1974, 3 p.m. UTC

Rocket: Voskhod

Launch pad: 41/1

Location: Plesetsk Cosmodrome, Russian Federation

...

Latest news about this satellite

There are no fresh news available about this satellite. Check back as we update our databases every day.


Newsletter sign-up

Weekly statistics, charts and insights to help you stay on top of the space industry.